NWS Home NWS Lubbock West Texas Mesonet North Sector Latest Conditions as of 1034 AM, Mon Jun 26, 2017

Latest   N   C   S   Daily Sum   3hrΔ   24hrΔ   Soil Data 
Site Map   24hr Precip   72hr Precip   Google Plot


Station Time of Last Temp Dew Pt. RH Wind Direction Wind Speed Wind Gust Max Wind Max Temp Min Temp Max RH Min RH Altimeter 1HR Rain Today's Rain Solar Rad
Aiken 3WSW  10:30 AM 70 62 77% NE1112 45 mph 359° @ 1230 AM 71 59 99 66 30.25" 0 1.13 682
Amarillo 15NNW   10:30 AM 74 59 60% SW1214 32 mph 153° @ 1252 AM 74 58 96 60 30.26" 0 0.01 665
Amarillo 7SSE  10:30 AM 73 56 55% SW1214 38 mph 144° @ 0117 AM 73 57 97 55 30.28" 0 0.27 697
Amarillo 9NNE  10:30 AM 73 59 62% SW89 33 mph 170° @ 0104 AM 73 58 100 60 30.25" 0 0.07 676
Amherst 1NE  10:30 AM 70 60 75% E35 53 mph 344° @ 1220 AM 70 58 100 75 30.25" 0 1.50 646
Bootleg 11WNW  10:30 AM 71 58 62% S1113 27 mph 161° @ 0227 AM 71 54 97 60 30.33" 0 0.04 596
Boys Ranch 1WSW  10:30 AM 73 59 60% W812 32 mph 187° @ 1219 AM 73 59 95 59 30.26" 0 0.02 673
Caprock Canyons State Park  10:30 AM 71 60 68% N712 31 mph 337° @ 0116 AM 71 61 96 64 30.23" 0 1.10 510
Childress 2NNE  10:30 AM 75 61 63% NW913 17 mph 216° @ 0355 AM 75 67 86 63 30.18" 0 0.00 755
Clarendon 2WSW  10:30 AM 74 57 58% N711 51 mph 205° @ 0330 AM 74 61 92 58 30.23" 0 0.23 666
Claude 12SW  10:30 AM 71 58 62% W67 44 mph 146° @ 0234 AM 71 58 99 62 30.26" 0 0.46 716
Dimmitt 2NE  10:30 AM 69 58 70% SE912 37 mph 118° @ 0255 AM 69 58 99 70 30.28" 0 1.23 662
Dozier 3W  10:30 AM 77 61 58% N1315 17 mph 354° @ 0940 AM 77 73 72 58 30.21" 0 0.00 714
Floydada 2NNE  10:30 AM 68 62 81% NE1419 45 mph 328° @ 0110 AM 70 59 100 75 30.23" 0 1.37 387
Friona 2NE  10:30 AM 72 57 59% S1419 32 mph 135° @ 0240 AM 72 56 98 59 30.29" 0 0.32 682
Goodlett 3W  10:30 AM 76 61 62% W57 14 mph 192° @ 0400 AM 76 70 81 62 30.17" 0 0.00 296
Goodnight  10:30 AM 72 58 60% NW56 50 mph 188° @ 0248 AM 72 59 97 60 30.26" 0 0.38 718
Hart 3N  10:30 AM 69 58 69% SE69 47 mph 18° @ 1215 AM 69 58 97 69 30.27" 0 1.14 726
Hereford 2NW  10:30 AM 71 55 59% S1013 34 mph 149° @ 0215 AM 71 56 97 59 30.28" 0 0.27 709
McLean 1E  10:30 AM 75 59 59% N1216 43 mph 192° @ 0130 AM 75 63 93 59 30.22" 0 0.00 735
Memphis 1NE  10:30 AM 77 61 59% N1216 35 mph 199° @ 0350 AM 77 65 83 59 30.20" 0 0.00 635
Muleshoe 2SSW  10:30 AM 71 59 68% S68 36 mph 117° @ 0320 AM 71 58 99 68 30.27" 0 0.32 606
Northfield 1S  10:30 AM 75 62 66% N1013 22 mph 221° @ 0440 AM 75 65 93 66 30.20" 0 0.00 529
Olton 6S  10:30 AM 71 58 66% E79 42 mph 63° @ 0330 AM 71 59 94 66 30.25" 0 0.82 630
Palo Duro Canyon SP Floor  10:30 AM 76 62 60% NE33 34 mph 148° @ 0301 AM 77 60 98 57 30.22" 0 0.52 669
Palo Duro Canyon State Park Rim  10:30 AM 75 56 52% S611 36 mph 160° @ 0203 AM 75 58 96 51 30.27" 0 0.36 714
Pampa 2E  10:30 AM 73 56 56% NW36 39 mph 150° @ 1240 AM 74 59 95 56 30.25" 0 0.00 658
Panhandle 1SSW  10:30 AM 72 58 61% W68 44 mph 167° @ 0131 AM 72 59 92 61 30.28" 0 0.07 713
Plainview 1S  10:30 AM 71 61 71% NE912 42 mph 345° @ 1230 AM 72 58 99 71 30.24" 0 1.63 591
Silverton 7ESE  10:30 AM 72 57 60% N1013 50 mph 308° @ 1220 AM 72 59 95 60 30.25" 0 1.32 611
Stinnett 1NNW  10:30 AM 74 57 54% SW1214 21 mph 140° @ 1228 AM 74 61 90 53 30.26" 0 0.00 684
Tulia 2ENE  10:30 AM 70 60 72% SE35 44 mph 122° @ 0405 AM 70 57 100 72 30.25" 0 0.93 555
Turkey 2WSW  10:30 AM 74 61 67% N1215 33 mph 327° @ 1255 AM 74 62 100 65 30.21" 0 0.44 601
Umbarger 3NNE  10:30 AM 72 59 64% S1315 50 mph 144° @ 0205 AM 72 57 96 61 30.28" 0 0.12 713
Vigo Park  10:30 AM 72 58 61% E45 44 mph 149° @ 0415 AM 73 57 99 60 30.26" 0 0.91 688

West Texas Mesonet Home   Site Map/Menu  NWS Lubbock Soil Data  Daily Summary Page  24hr Precip  72hr Precip  Google Plot